Location: Unspecified
(0.0000°N, 0.0000°E)
Time: 07:48:43
(UTC+00:00)

Tiros 1 despin weight - Pass Details

Date: 06 October 2023
Orbit: 583 x 627 km, 48.2° (Epoch: 05 December)

Event Time Altitude Azimuth Distance (km) Brightness Sun altitude
Rises 02:06:16 0° 322° (NW) 2,785 - -55.2°
Reaches altitude 10° 02:08:32 10° 323° (NW) 1,886 - -54.6°
Maximum altitude 02:12:50 83° 49° (NE) 587 - -53.6°
Drops below altitude 10° 02:17:11 10° 139° (SE) 1,898 - -52.5°
Sets 02:19:28 0° 140° (SE) 2,804 - -51.9°
